STRAND-1

Last updated on Tue Jan 14 2025 00:03:00 GMT+0000 (Coordinated Universal Time)

1 39090U 13009E 25013.44909957 .00000643 00000+0 23323-3 0 9990 2 39090 98.3771 202.0281 0008592 351.7245 8.3799 14.36578972622428
UTC large
Height (km)
Speed (km/s)
/
Latitude / Longitude
Inclination (degrees)
Orbital Period (minutes)
Azimuth
Elevation
Range (km)
Doppler Factor

Next 0 passes for location: London (51.5072 / 0.1276)

Sorry there are no passes over London.